Preview of NWS' New Version of Forecast
This preview is not operational and should not be used for support decisions.
Latest weather observations around

Montgomery, Dannelly Field (KMGM)

Using International System of Units (Switch to English Units)
Date/ Time (CDT) Wind (kph) Vis. (km) Weather Sky Cond. Temp (°C) Rel. Humidity Wind Chill (°C) Heat Index (°C) Pressure Precip. (cm)
Air Dwpt 6 hour Altimeter (hPa) Sea level (hPa) 1 hr 3 hr 6 hr
Max Min
May 27 23:53 NE 13 16.09 Light Rain FEW036 SCT120 22 21     91%   23 1010.8 1010.4 0    
May 27 21:53 NE 13 12.87 Light Rain BKN047 OVC100 23 21     87%   24 1011.5 1011.1 0 0  
May 27 20:53 E 11 16.09 Light Rain OVC090 23 21     87%   24 1010.8 1010.5 0    
May 27 19:53 ESE 22 16.09 Mostly Cloudy FEW028 SCT038 BKN048 25 21     77%   26 1010.2 1010      
May 27 18:53 ENE 11 16.09 Clear CLR 28 19     60%   29 1009.5 1009.1      
May 27 17:53 NE 11 16.09 Clear   28 19     59%   30 1009.5 1009      
May 27 16:53 E 13 16.09 Clear CLR 29 21     61%   31 1009.5 1009.3      
May 27 15:53 E 17 16.09 Mostly Clear FEW049 30 20     55%   32 1009.8 1009.6      
May 27 14:53 ENE 21 16.09 Partly Cloudy SCT046 31 20     53%   33 1010.5 1010.1      
May 27 13:53 NE 22 16.09 Mostly Cloudy FEW037 SCT044 BKN055 31 21     55%   33 1010.8 1010.6      
May 27 12:53 ENE 18 16.09 Mostly Clear FEW037 FEW049 30 21     57%   32 1011.9 1011.4      
May 27 11:53 NNE 15 16.09 Mostly Clear FEW025 29 22     63%   32 1012.5 1012.1      
May 27 10:53 ENE 17 16.09 Clear CLR 27 21     69%   29 1012.9 1012.6      
May 27 09:53 E 9 16.09 Clear CLR 26 21     76%   26 1013.2 1012.8      
May 27 08:53 E 11 16.09 Clear CLR 24 22     85%   25 1013.6 1013.1      
May 27 07:53 ENE 11 16.09 Clear CLR 23 22     94%   24 1013.2 1012.8      
May 27 07:15 E 13 16.09 Mostly Clear FEW006 22 21     93%   23 1013.2        
May 27 06:53 E 9 16.09 Clear CLR 22 21     93%   23 1012.9 1012.6      
May 27 05:53 E 8 14.48 Clear CLR 22 21     93%   22 1012.5 1012.2      
May 27 04:53 E 9 16.09 Clear CLR 22 21     96%   22 1012.2 1012      
May 27 03:53 Calm 14.48 Clear CLR 21 21     97%     1011.9 1011.7      
May 27 02:53 E 5 16.09 Clear CLR 22 21     96%   22 1012.2 1012      
May 27 01:53 E 5 16.09 Clear CLR 22 21     93%   22 1012.5 1012.1      
May 27 00:53 NNW 5 16.09 Clear CLR 22 21     93%   23 1012.5 1012.2     0
May 26 23:53 Calm 16.09 Clear CLR 23 21     90%   23 1012.9 1012.6      
May 26 22:53 Calm 16.09 Clear CLR 23 22     94%   24 1013.2 1012.8      
May 26 21:53 SSE 5 16.09 Clear CLR 24 21     84%   25 1012.9 1012.5   0  
May 26 20:53 S 9 16.09 Clear CLR 25 21     79%   26 1012.2 1011.9      
May 26 20:38 S 9 16.09 Mostly Clear FEW049 25 21     79%   26 1012.2        
May 26 20:23 S 13 16.09 Mostly Cloudy BKN048 25 22     82%   26 1012.2        
May 26 20:15 S 13 16.09 Mostly Cloudy BKN048 25 22     82%   26 1011.9        
May 26 20:06 SSE 11 16.09 Partly Cloudy SCT046 25 22     82%   26 1011.9        
May 26 19:53 SSE 11 16.09 Thunderstorms FEW044 25 22     82%   26 1011.9 1011.4 0    
May 26 19:09 SE 11 16.09 Thunderstorms FEW039 BKN055 26 22     82%   26 1011.2   0    
May 26 18:53 SE 17 16.09 Light Rain SCT039 BKN060 OVC110 26 22     77%   28 1010.8 1010.5 0   0
May 26 18:49 SE 21 16.09 Mostly Cloudy SCT039 BKN060 BKN075 26 22     79%   28 1010.8   0    
May 26 17:53 SSE 5 16.09 Clear CLR 29 22     65%   32 1010.5 1010.1      
May 26 16:53 SE 11 16.09 Clear CLR 30 21     59%   33 1010.8 1010.4      
May 26 15:53 S 11 16.09 Clear CLR 30 20     55%   32 1010.8 1010.6      
May 26 14:53 SSE 15 16.09 Clear CLR 31 20     53%   33 1011.5 1011      
May 26 13:53 ESE 5 16.09 Mostly Cloudy FEW035 FEW043 BKN065 29 21     61%   32 1012.2 1011.9      
May 26 12:53 Calm 16.09 Mostly Cloudy BKN034 BKN047 BKN060 29 21     61%   32 1013.2 1012.8      
May 26 11:53 N 8 16.09 Mostly Cloudy BKN031 30 21     59%   33 1013.9 1013.5      
May 26 10:53 W 11 16.09 Cloudy FEW028 BKN034 OVC049 27 21     69%   29 1014.2 1013.9      
May 26 10:25 5 16.09 Partly Cloudy FEW020 SCT024 28 22     70%   31 1014.6        
May 26 10:11 5 16.09 Mostly Cloudy BKN018 BKN024 27 22     74%   30 1014.6        
May 26 09:53 N 8 16.09 Mostly Clear FEW018 27 22     72%   29 1014.6 1014.1      
May 26 08:53 W 5 16.09 Clear CLR 26 22     82%   26 1014.9 1014.4      
May 26 08:26 NW 5 16.09 Mostly Clear FEW007 24 22     88%   25 1014.6        
May 26 07:53 SSW 5 16.09 Clear CLR 23 22     94%   24 1014.6 1014.2      
May 26 06:53 SSE 5 14.48 Clear CLR 22 21     96%   22 1013.9 1013.7      
May 26 06:40 ESE 5 9.66 Fog/Mist SCT002 21 21     100%     1013.9        
May 26 06:24 Calm 4.83 Fog/Mist OVC002 21 21     100%     1013.6        
May 26 06:13 Calm 2.82 Fog/Mist OVC002 21 21     100%     1013.6        
May 26 05:53 SE 5 4.83 Fog/Mist BKN002 21 20     96%     1013.2 1012.8      
May 26 05:46 SE 8 8.05 Fog/Mist BKN002 20 20     100%     1013.2        
May 26 05:37 SE 5 11.27 Partly Cloudy SCT002 20 20     100%     1012.9        
May 26 04:53 Calm 11.27 Clear CLR 21 20     96%     1012.5 1012.3      
May 26 04:33 Calm 6.44 Fog/Mist CLR 21 20     96%     1012.9        
May 26 04:25 Calm 3.22 Fog/Mist CLR 20 19     96%     1012.5        
May 26 04:10 Calm 2.01 Fog/Mist CLR 20 19     96%     1012.5        
May 26 04:02 Calm 2.82 Fog/Mist CLR 21 21     100%     1012.5        
May 26 03:56 Calm 4.83 Fog/Mist CLR 21 21     97%     1012.5        
May 26 03:53 Calm 2.41 Fog/Mist CLR 21 21     97%     1012.5 1012.2      
May 26 03:50 Calm 1.61 Fog/Mist CLR 21 20     94%     1012.5        
May 26 03:43 Calm 2.82 Fog/Mist CLR 21 20     96%     1012.5        
May 26 02:53 ESE 8 8.05 Fog/Mist SCT037 21 21     100%     1012.9 1012.6      
May 26 01:53 Calm 12.87 Clear CLR 21 21     97%     1013.2 1013      
May 26 00:53 S 5 16.09 Clear CLR 22 21     96%   22 1013.9 1013.4     0
May 25 23:53 SSE 8 16.09 Clear CLR 22 22     97%   23 1013.9 1013.6      
May 25 23:29 SSE 9 14.48 Mostly Cloudy SCT002 BKN070 22 22     97%   23 1014.2        
May 25 23:07 Calm 6.44 Fog/Mist BKN002 22 22     97%   23 1014.6        
May 25 22:56 Calm 4.02 Fog/Mist BKN002 23 22     96%   24 1014.6        
May 25 22:53 Calm 4.83 Fog/Mist SCT002 23 22     96%   24 1014.6 1014.1      
May 25 21:53 Calm 16.09 Partly Cloudy SCT110 23 22     94%   24 1014.6 1014.2 0 0  
May 25 20:53 Calm 16.09 Light Rain BKN110 24 23     94%   25 1014.6 1014.2 0    
May 25 19:53 Calm 16.09 Mostly Cloudy FEW080 BKN095 24 22     90%   25 1013.9 1013.4 0    
May 25 18:53 S 13 16.09 Mostly Cloudy BKN044 BKN055 BKN100 24 22     90%   25 1013.9 1013.4      
May 25 17:53 SSE 9 16.09 Clear CLR 26 22     79%   26 1013.2 1012.8      
May 25 17:13 Calm 16.09 Mostly Clear FEW002 27 21     69%   28 1012.9        
May 25 16:53 N 8 16.09 Mostly Clear FEW024 27 21     67%   29 1013.2 1013      
May 25 15:53 ENE 9 16.09 Clear CLR 26 21     74%   26 1013.6 1013.2      
May 25 15:00 E 15 16.09 Partly Cloudy FEW008 SCT120 24 22     88%   25 1014.6        
May 25 14:53 E 18 16.09 Mostly Clear FEW080 24 22     85%   25 1014.9 1014.6      
May 25 14:38 ENE 13 16.09 Thunderstorms FEW080 25 22     82%   26 1015.2        
May 25 14:29 E 21 16.09 Partly Cloudy SCT080 SCT100 25 21     79%   26 1015.2        
May 25 05:53 Calm 0.4 Fog VV002 22 21     96%   22 1016.6 1016.2      
May 25 05:41 Calm 0.8 Fog VV002 22 21     96%   22 1016.6        
May 25 05:24 Calm 0.4 Fog   21 21     100%     1016.3        
May 25 05:16 Calm 0.8 Fog   21 21     100%     1016.3        
May 25 05:00 Calm 0.4 Fog   22 21     96%   22 1016.3        
May 25 04:53 Calm 0.8 Fog   22 21     96%   22 1016.3 1016      
May 25 04:32 Calm 0.8 Fog   22 22     100%   23 1016.3        
May 25 04:23 Calm 2.01 Fog/Mist   22 22     100%   23 1016.3        
May 25 04:11 NNE 5 4.02 Fog/Mist   22 21     96%   22 1016.3        
May 25 04:01 Calm 2.82 Fog/Mist   22 22     100%   23 1016.3        
May 25 03:53 Calm 1.61 Fog/Mist   22 22     100%   23 1016.3 1016      
May 25 03:50 Calm 1.21 Fog/Mist   22 22     100%   23 1016.3        
May 25 03:34 NW 5 2.01 Fog/Mist   22 22     97%   23 1016.3        
May 25 03:22 WNW 5 0.8 Fog   22 22     97%   23 1016.3        
May 25 03:06 Calm 0.4 Fog VV002 22 22     97%   23 1016.3        
May 25 02:53 NNE 5 0.4 Fog   22 22     97%   23 1016.3 1015.9      
May 25 02:44 Calm 0.4 Fog   22 22     97%   23 1016.3        
May 25 02:34 Calm 1.21 Fog/Mist   22 22     97%   23 1016.6        
May 25 02:06 Calm 2.41 Fog/Mist   22 22     97%   23 1016.3        
May 25 02:02 Calm 1.61 Fog/Mist VV002 22 22     97%   23 1016.3        
May 25 01:53 Calm 1.21 Fog/Mist   22 22     100%   23 1016.6 1016.1      
May 25 01:40 NW 5 1.21 Fog/Mist   22 22     100%   23 1016.6        
May 25 01:32 WNW 5 2.82 Fog/Mist   22 22     100%   23 1016.6        
May 25 00:53 Calm 8.05 Fog/Mist   22 22     97%   23 1017.3 1016.9      
May 15 10:53 E 13 16.09 Cloudy BKN033 OVC041 28 19     59%   30 1015.6 1015.1      
May 14 19:53 SE 11 16.09 Clear CLR 26 20     69%   27 1013.6 1013.3      
May 14 17:53 NE 8 16.09 Clear CLR 32 17     42%   32 1013.2 1012.8      
May 14 12:53 N 11 16.09 Mostly Clear FEW070 34 16     33%   34 1015.9 1015.4      
May 14 11:53 N 8 16.09 Clear CLR 34 18     38%   35 1016.3 1015.9      
May 13 00:53 Calm 16.09 Clear CLR 19 17     87%     1018.3 1018      
May 12 15:53 SW 11 16.09 Clear CLR 33 12     28%   31 1018.6 1018.3      
May 11 16:53 Calm 16.09 Mostly Clear FEW080 32 13     32%   31 1017.6 1017.2      
May 11 11:53 5 16.09 Clear CLR 30 15     40%   30 1020.7 1020.3      
Jun 12 08:37 ESE 13 16.09 Mostly Clear FEW015 27 21     69%   29 1021.3        
Jun 11 20:53 ESE 8 16.09 Clear CLR 26 22     77%   28 1019.3 1019.1      
Jun 11 16:53 SSE 15 16.09 Clear CLR 29 20     59%   31 1018.3 1018      
Jun 11 10:53 SE 11 16.09 Mostly Clear FEW028 30 20     55%   32 1020.7 1020.3      
Jun 11 10:10 ESE 11 16.09 Partly Cloudy SCT023 29 21     61%   32 1021        
Jun 11 09:53 SE 13 16.09 Mostly Cloudy BKN023 29 21     63%   31 1021 1020.6      
Jun 09 16:53 S 8 16.09 Clear CLR 31 13     35%   30 1013.2 1012.7      
Jun 09 15:53 8 16.09 Mostly Clear FEW060 30 13     36%   29 1013.6 1013.1      
Jun 08 06:53 Calm 16.09 Clear CLR 19 14     73%     1012.2 1012      
Jun 07 10:53 NNE 17 16.09 Clear CLR 27 19     62%   28 1008.1 1007.7      
Jun 06 13:58 N 15 3.22 Heavy Rain FEW027 BKN034 OVC060 24 21     84%   25 1006.8   0    
Jun 06 13:43 N 17 2.01 Heavy Rain FEW006 BKN022 OVC040 23 21     85%   24 1007.1   1    
Jun 06 12:53 SE 18 16.09 Mostly Cloudy FEW021 SCT033 BKN042 27 21     71%   28 1007.5 1007      
Jun 06 09:53 NE 15 16.09 Mostly Cloudy BKN007 26 22     77%   28 1007.8 1007.4      
Jun 06 07:53 Calm 16.09 Mostly Clear FEW004 23 21     85%   24 1008.5 1008.2      
Notice The following observation data may not be complete
Jun 05 21:03   9.66 Rain FEW006 BKN023 OVC110          %         0    
Jun 05 19:28 N 5 16.09 Mostly Cloudy SCT027 BKN065 24 20     79%   24 1008.8